QPF
0.00 0.00 0.00 0.00 0.00 0.00 0.00 0.00 0.00 0.00 0.00 0.00 0.00 0.00 0.00 0.00 0.00 0.00 0.00 0.00 0.00 0.00
0.00 0.00 0.00 0.00 0.00 0.00 0.00 0.00 0.00 0.00 0.00 0.00 0.00 0.00 0.00 0.00 0.00 0.00 0.00 0.00 0.00 0.00
0.00 0.00 0.00 0.00 0.00 0.00 0.00 0.00 0.00 0.00 0.00 0.00 0.00 0.00 0.00 0.00 0.00 0.00 0.00 0.00 0.00 0.00
0.00 0.00 0.00 0.00 0.00 0.00 0.00 0.00 0.00 0.00 0.00 0.00 0.00 0.00 0.00 0.00 0.00 0.00 0.00 0.00 0.00 0.00
0.00 0.00 0.00 0.00 0.00 0.00 0.00 0.00 0.00 0.00 0.00 0.00 0.00 0.00 0.00 0.00 0.00 0.00 0.00 0.00 0.00 0.00
0.00 0.00 0.00 0.00 0.00 0.00 0.00 0.00 0.00 0.00 0.00 0.00 0.00 0.00 0.00 0.00 0.00 0.00 0.00 0.00 0.00 0.00
0.00 0.00 0.00 0.00 0.00 0.00 0.00 0.00 0.00 0.00 0.00 0.00 0.00 0.00 0.00 0.00 0.00 0.00 0.01 0.00 0.00 0.00
0.00 0.00 0.00 0.00 0.00 0.00 0.00 0.00 0.00 0.00 0.00 0.00 0.00 0.00 0.00 0.00 0.00 0.01 0.00 0.00 0.00 0.00
0.00 0.00 0.00 0.00 0.00 0.00 0.00 0.00 0.00 0.00 0.00 0.00 0.00 0.00 0.00 0.00 0.00 0.00 0.00 0.00 0.00 0.00
0.00 0.00 0.00 0.00 0.00 0.00 0.00 0.00 0.00 0.00 0.00 0.00 0.00 0.00 0.00 0.00 0.00 0.00 0.00 0.00 0.00 0.00
0.00 0.00 0.00 0.00 0.00 0.00 0.00 0.00 0.00 0.00 0.00 0.00 0.00 0.00 0.00 0.00 0.00 0.00 0.00 0.00 0.00 0.00
0.00 0.00 0.00 0.00 0.00 0.00 0.00 0.00 0.00 0.00 0.00 0.00 0.00 0.00 0.00 0.00 0.00 0.00 0.00 0.00 0.00 0.00
0.00 0.00 0.00 0.00 0.00 0.00 0.00 0.00 0.00 0.00 0.00 0.00 0.00 0.00 0.00 0.00 0.00 0.00 0.00 0.00 0.00 0.00
0.00 0.00 0.00 0.00 0.00 0.00 0.00 0.00 0.00 0.00 0.00 0.00 0.00 0.00 0.00 0.00 0.00 0.00 0.00 0.00 0.00 0.00
MSLP
1017.55 1017.73 1018.06 1018.13 1018.16 1018.12 1018.06 1017.82 1017.38 1017.25 1016.94 1016.70 1016.61 1016.52 1016.32 1016.24 1016.13 1015.97 1015.86 1015.76 1015.62 1015.24
1017.41 1017.58 1017.79 1017.87 1017.98 1017.95 1017.80 1017.55 1017.33 1017.12 1016.96 1016.58 1016.31 1016.19 1015.93 1015.75 1015.76 1015.62 1015.55 1015.28 1014.87 1014.64
1017.44 1017.65 1017.79 1017.80 1017.68 1017.58 1017.47 1017.34 1017.26 1017.14 1016.93 1016.56 1016.21 1015.98 1015.66 1015.44 1015.09 1015.09 1014.92 1014.81 1014.56 1014.30
1017.48 1017.62 1017.79 1018.00 1018.06 1018.01 1017.80 1017.56 1017.28 1016.86 1016.54 1016.35 1016.01 1015.58 1015.43 1015.19 1014.96 1014.74 1014.29 1014.16 1014.09 1013.82
1017.96 1018.10 1018.10 1018.04 1017.93 1017.76 1017.55 1017.31 1017.04 1016.87 1016.57 1016.14 1015.80 1015.42 1015.14 1014.75 1014.21 1014.31 1014.06 1013.57 1013.56 1013.36
1018.07 1018.01 1018.04 1017.93 1017.73 1017.56 1017.39 1017.17 1016.98 1016.74 1016.43 1016.11 1015.56 1015.00 1014.55 1014.35 1013.95 1013.60 1013.26 1013.08 1012.97 1012.66
1017.81 1017.92 1018.01 1017.93 1017.79 1017.63 1017.47 1017.19 1016.89 1016.66 1016.32 1015.85 1015.37 1014.72 1014.44 1014.00 1013.60 1013.43 1013.32 1013.01 1012.31 1012.01
1018.01 1018.07 1018.12 1018.15 1017.98 1017.72 1017.33 1017.00 1016.80 1016.38 1015.98 1015.67 1015.29 1014.78 1014.35 1013.99 1013.47 1012.97 1012.76 1012.94 1012.53 1011.88
1018.15 1018.26 1018.41 1018.31 1017.93 1017.49 1017.28 1017.01 1016.59 1016.16 1015.67 1015.44 1015.27 1014.81 1014.38 1013.97 1013.68 1013.29 1012.90 1012.40 1011.90 1011.38
1018.36 1018.42 1018.22 1017.94 1017.65 1017.46 1017.16 1016.65 1016.32 1016.08 1015.91 1015.43 1015.06 1014.50 1014.17 1013.81 1013.44 1013.10 1012.74 1012.42 1011.97 1011.27
1018.39 1018.02 1017.63 1017.49 1017.36 1017.23 1016.91 1016.64 1016.49 1016.03 1015.78 1015.30 1014.70 1014.19 1013.82 1013.32 1013.01 1012.63 1012.21 1011.75 1011.32 1010.90
1018.04 1017.87 1017.56 1017.19 1017.17 1016.99 1016.82 1016.67 1016.31 1015.76 1015.31 1014.96 1014.57 1014.03 1013.63 1013.18 1012.74 1012.22 1011.60 1010.98 1010.43 1009.92
1018.16 1017.69 1017.51 1017.55 1017.36 1017.04 1016.61 1016.19 1015.74 1015.26 1014.98 1014.66 1014.18 1013.74 1013.46 1013.04 1012.57 1011.94 1011.17 1010.50 1009.90 1009.42
1017.58 1017.67 1017.66 1017.63 1017.28 1016.76 1016.36 1015.98 1015.69 1015.28 1014.81 1014.29 1013.84 1013.47 1013.14 1012.73 1012.31 1011.69 1010.92 1010.25 1009.44 1008.78
Thickness
5600 5593 5587 5581 5576 5571 5563 5557 5553 5546 5540 5533 5524 5515 5508 5503 5494 5489 5481 5477 5473 5474
5586 5583 5576 5570 5563 5555 5548 5542 5534 5527 5521 5513 5503 5495 5486 5477 5467 5461 5455 5453 5451 5448
5575 5567 5560 5555 5549 5542 5534 5526 5518 5509 5500 5491 5481 5468 5459 5452 5446 5439 5436 5432 5430 5427
5558 5553 5546 5536 5526 5518 5513 5504 5498 5491 5482 5470 5460 5450 5438 5432 5427 5422 5421 5418 5417 5416
5539 5532 5525 5518 5512 5504 5497 5489 5479 5467 5458 5450 5441 5432 5424 5419 5418 5409 5406 5406 5402 5401
5525 5519 5512 5506 5500 5492 5481 5469 5458 5448 5437 5427 5421 5418 5413 5406 5402 5397 5394 5391 5387 5389
5515 5507 5498 5490 5481 5469 5459 5450 5441 5430 5419 5413 5409 5405 5398 5391 5387 5381 5377 5376 5379 5378
5498 5489 5480 5469 5459 5450 5442 5434 5423 5415 5409 5401 5394 5389 5382 5375 5373 5371 5368 5362 5363 5367
5480 5470 5459 5451 5444 5438 5427 5417 5409 5403 5397 5390 5381 5373 5368 5364 5362 5357 5351 5355 5359 5362
5462 5453 5445 5438 5431 5421 5413 5405 5399 5391 5383 5378 5369 5365 5361 5359 5355 5351 5348 5347 5349 5353
5446 5441 5434 5423 5415 5405 5399 5392 5386 5381 5374 5368 5362 5359 5356 5354 5352 5349 5346 5346 5346 5346
5434 5426 5417 5410 5400 5392 5387 5381 5378 5374 5369 5364 5359 5355 5351 5349 5347 5346 5346 5345 5344 5343
5414 5409 5403 5390 5384 5380 5379 5377 5374 5369 5361 5358 5356 5352 5347 5344 5341 5341 5341 5341 5339 5335
5403 5394 5384 5377 5374 5374 5372 5369 5365 5362 5357 5352 5350 5346 5342 5339 5335 5333 5332 5330 5330 5326